When you browse on this site, cookies collect data to enhance your experience and personalize the content and advertising you see.
Visit our Privacy Policy to learn more. By continuing to use the site, you agree to this use of cookies and data.
  • en France
  • Liste des pays
  • À 7 jours
  • Température de l'eau
  • Carte météo
  • Widgets météo
  • user-avatar
    Se connecter

    Météo par heure à Brikama

    Ce jour, 1 Juin, Lundi

    Heure Température Précipitation Vent Pression Humidité
    00:00 +25°C° 0 mm 3 m/s 758 mmHg 72%
    01:00 +25°C° 0 mm 2 m/s 758 mmHg 72%
    02:00 +25°C° 0 mm 2 m/s 758 mmHg 73%
    03:00 +25°C° 0 mm 2 m/s 758 mmHg 72%
    04:00 +25°C° 0 mm 2 m/s 758 mmHg 71%
    05:00 +25°C° 0 mm 2 m/s 758 mmHg 69%
    06:00 +26°C° 0 mm 2 m/s 758 mmHg 67%
    07:00 +27°C° 0 mm 2 m/s 758 mmHg 65%
    08:00 +28°C° 0 mm 1 m/s 759 mmHg 62%
    09:00 +30°C° 0 mm 2 m/s 758 mmHg 57%
    10:00 +32°C° 0 mm 2 m/s 758 mmHg 52%
    11:00 +35°C° 0 mm 2 m/s 758 mmHg 45%
    12:00 +35°C° 0 mm 3 m/s 758 mmHg 46%
    13:00 +34°C° 0 mm 3 m/s 757 mmHg 48%
    14:00 +34°C° 0 mm 4 m/s 757 mmHg 49%
    15:00 +33°C° 0.2 mm 4 m/s 757 mmHg 52%
    16:00 +32°C° 0.2 mm 4 m/s 757 mmHg 54%
    17:00 +30°C° 0.2 mm 5 m/s 757 mmHg 56%
    18:00 +29°C° 0.3 mm 4 m/s 758 mmHg 61%
    19:00 +28°C° 0.3 mm 4 m/s 758 mmHg 65%
    20:00 +26°C° 0.3 mm 4 m/s 758 mmHg 69%
    21:00 +26°C° 0 mm 3 m/s 758 mmHg 70%
    22:00 +26°C° 0 mm 3 m/s 759 mmHg 70%
    23:00 +26°C° 0 mm 3 m/s 759 mmHg 70%

    Demain, 2 Juin, Mardi

    Heure Température Précipitation Vent Pression Humidité
    00:00 +26°C° 0 mm 3 m/s 759 mmHg 71%
    01:00 +26°C° 0 mm 3 m/s 758 mmHg 71%
    02:00 +26°C° 0 mm 4 m/s 758 mmHg 71%
    03:00 +26°C° 0 mm 4 m/s 758 mmHg 71%
    04:00 +26°C° 0 mm 4 m/s 758 mmHg 70%
    05:00 +26°C° 0 mm 4 m/s 758 mmHg 70%
    06:00 +27°C° 0 mm 3 m/s 758 mmHg 63%
    07:00 +28°C° 0 mm 3 m/s 759 mmHg 56%
    08:00 +29°C° 0 mm 3 m/s 759 mmHg 50%
    09:00 +30°C° 0 mm 3 m/s 759 mmHg 45%
    10:00 +33°C° 0 mm 3 m/s 759 mmHg 40%
    11:00 +34°C° 0 mm 4 m/s 758 mmHg 36%
    12:00 +35°C° 0 mm 4 m/s 758 mmHg 34%
    13:00 +36°C° 0 mm 5 m/s 757 mmHg 32%
    14:00 +38°C° 0 mm 6 m/s 756 mmHg 30%
    15:00 +35°C° 0 mm 7 m/s 756 mmHg 34%
    16:00 +34°C° 0 mm 7 m/s 756 mmHg 38%
    17:00 +32°C° 0 mm 8 m/s 755 mmHg 42%
    18:00 +31°C° 0 mm 8 m/s 756 mmHg 47%
    19:00 +29°C° 0 mm 7 m/s 757 mmHg 51%
    20:00 +28°C° 0 mm 7 m/s 757 mmHg 55%
    21:00 +28°C° 0 mm 6 m/s 757 mmHg 58%
    22:00 +27°C° 0 mm 6 m/s 757 mmHg 60%
    23:00 +27°C° 0 mm 5 m/s 758 mmHg 63%

    Après-demain, 3 Juin, Mercredi

    Heure Température Précipitation Vent Pression Humidité
    00:00 +26°C° 0 mm 5 m/s 757 mmHg 65%
    01:00 +26°C° 0 mm 5 m/s 757 mmHg 67%
    02:00 +26°C° 0 mm 5 m/s 756 mmHg 70%
    03:00 +26°C° 0 mm 5 m/s 757 mmHg 70%
    04:00 +25°C° 0 mm 5 m/s 757 mmHg 70%
    05:00 +25°C° 0 mm 5 m/s 757 mmHg 71%
    06:00 +26°C° 0 mm 5 m/s 757 mmHg 66%
    07:00 +27°C° 0 mm 5 m/s 757 mmHg 61%
    08:00 +28°C° 0 mm 5 m/s 758 mmHg 56%
    09:00 +29°C° 0 mm 5 m/s 758 mmHg 48%
    10:00 +32°C° 0 mm 4 m/s 758 mmHg 40%
    11:00 +34°C° 0 mm 4 m/s 758 mmHg 32%
    12:00 +35°C° 0 mm 5 m/s 757 mmHg 33%
    13:00 +36°C° 0 mm 6 m/s 757 mmHg 33%
    14:00 +36°C° 0 mm 7 m/s 756 mmHg 34%
    15:00 +35°C° 0 mm 7 m/s 756 mmHg 40%
    16:00 +33°C° 0 mm 8 m/s 755 mmHg 47%
    17:00 +31°C° 0 mm 8 m/s 755 mmHg 53%
    18:00 +29°C° 0 mm 9 m/s 755 mmHg 57%
    19:00 +28°C° 0 mm 9 m/s 756 mmHg 61%
    20:00 +27°C° 0 mm 9 m/s 756 mmHg 65%
    21:00 +27°C° 0 mm 9 m/s 756 mmHg 64%
    22:00 +27°C° 0 mm 9 m/s 756 mmHg 63%
    23:00 +27°C° 0 mm 8 m/s 756 mmHg 62%

    4 Juin, Jeudi

    Heure Température Précipitation Vent Pression Humidité
    00:00 +27°C° 0 mm 8 m/s 756 mmHg 63%
    01:00 +26°C° 0 mm 7 m/s 756 mmHg 63%
    02:00 +26°C° 0 mm 7 m/s 755 mmHg 64%
    03:00 +26°C° 0 mm 6 m/s 755 mmHg 63%
    04:00 +26°C° 0 mm 5 m/s 755 mmHg 63%
    05:00 +25°C° 0 mm 5 m/s 755 mmHg 62%
    06:00 +27°C° 0 mm 5 m/s 756 mmHg 57%
    07:00 +28°C° 0 mm 5 m/s 757 mmHg 53%
    08:00 +29°C° 0 mm 5 m/s 757 mmHg 48%
    09:00 +32°C° 0 mm 5 m/s 757 mmHg 43%
    10:00 +33°C° 0 mm 5 m/s 757 mmHg 38%
    11:00 +35°C° 0 mm 5 m/s 757 mmHg 33%
    12:00 +35°C° 0 mm 6 m/s 756 mmHg 34%
    13:00 +36°C° 0 mm 6 m/s 755 mmHg 35%
    14:00 +36°C° 0 mm 7 m/s 755 mmHg 36%
    15:00 +35°C° 0 mm 7 m/s 754 mmHg 40%
    16:00 +33°C° 0 mm 8 m/s 754 mmHg 45%
    17:00 +32°C° 0 mm 8 m/s 754 mmHg 50%
    18:00 +31°C° 0 mm 9 m/s 754 mmHg 54%
    19:00 +29°C° 0 mm 9 m/s 755 mmHg 58%
    20:00 +28°C° 0 mm 9 m/s 755 mmHg 62%
    21:00 +27°C° 0 mm 9 m/s 755 mmHg 63%
    22:00 +27°C° 0 mm 8 m/s 756 mmHg 65%
    23:00 +27°C° 0 mm 8 m/s 756 mmHg 66%

    5 Juin, Vendredi

    Heure Température Précipitation Vent Pression Humidité
    00:00 +26°C° 0 mm 7 m/s 755 mmHg 67%
    01:00 +26°C° 0 mm 6 m/s 755 mmHg 68%
    02:00 +26°C° 0 mm 5 m/s 755 mmHg 70%
    03:00 +25°C° 0 mm 4 m/s 755 mmHg 69%
    04:00 +25°C° 0 mm 3 m/s 755 mmHg 69%
    05:00 +25°C° 0 mm 2 m/s 755 mmHg 68%
    06:00 +26°C° 0 mm 2 m/s 756 mmHg 61%
    07:00 +27°C° 0 mm 2 m/s 756 mmHg 53%
    08:00 +29°C° 0 mm 3 m/s 757 mmHg 46%
    09:00 +31°C° 0 mm 3 m/s 757 mmHg 41%
    10:00 +33°C° 0 mm 3 m/s 757 mmHg 37%
    11:00 +35°C° 0 mm 4 m/s 757 mmHg 33%
    12:00 +36°C° 0 mm 5 m/s 756 mmHg 32%
    13:00 +38°C° 0 mm 6 m/s 755 mmHg 32%
    14:00 +39°C° 0 mm 7 m/s 754 mmHg 31%
    15:00 +36°C° 0 mm 7 m/s 754 mmHg 38%
    16:00 +34°C° 0 mm 8 m/s 754 mmHg 45%
    17:00 +32°C° 0 mm 8 m/s 754 mmHg 52%
    18:00 +31°C° 0 mm 8 m/s 754 mmHg 58%
    19:00 +28°C° 0 mm 7 m/s 755 mmHg 64%
    20:00 +27°C° 0 mm 7 m/s 755 mmHg 71%
    21:00 +27°C° 0 mm 6 m/s 756 mmHg 72%
    22:00 +26°C° 0 mm 4 m/s 756 mmHg 74%
    23:00 +26°C° 0 mm 3 m/s 756 mmHg 75%

    6 Juin, Samedi

    Heure Température Précipitation Vent Pression Humidité
    00:00 +26°C° 0 mm 3 m/s 756 mmHg 76%
    01:00 +26°C° 0 mm 4 m/s 756 mmHg 77%
    02:00 +25°C° 0 mm 4 m/s 756 mmHg 78%
    03:00 +25°C° 0 mm 4 m/s 756 mmHg 78%
    04:00 +25°C° 0 mm 3 m/s 756 mmHg 78%
    05:00 +25°C° 0 mm 3 m/s 756 mmHg 78%
    06:00 +26°C° 0 mm 3 m/s 757 mmHg 69%
    07:00 +28°C° 0 mm 3 m/s 757 mmHg 60%
    08:00 +29°C° 0 mm 3 m/s 757 mmHg 50%
    09:00 +31°C° 0 mm 3 m/s 757 mmHg 45%
    10:00 +34°C° 0 mm 3 m/s 758 mmHg 40%
    11:00 +36°C° 0 mm 3 m/s 758 mmHg 34%
    12:00 +37°C° 0 mm 4 m/s 757 mmHg 34%
    13:00 +39°C° 0 mm 5 m/s 756 mmHg 33%
    14:00 +40°C° 0 mm 6 m/s 755 mmHg 32%
    15:00 +36°C° 0 mm 6 m/s 755 mmHg 40%
    16:00 +34°C° 0 mm 6 m/s 755 mmHg 48%
    17:00 +30°C° 0 mm 6 m/s 755 mmHg 56%
    18:00 +29°C° 0 mm 6 m/s 755 mmHg 62%
    19:00 +28°C° 0 mm 5 m/s 756 mmHg 69%
    20:00 +27°C° 0 mm 5 m/s 756 mmHg 75%
    21:00 +27°C° 0 mm 5 m/s 756 mmHg 76%
    22:00 +27°C° 0 mm 4 m/s 757 mmHg 77%
    23:00 +27°C° 0 mm 4 m/s 757 mmHg 78%
    Voir plus